CW8262 Weather Reports


Display with metric or nautical units.
time (UTC)temp
F
wind
direction
speed
MPH
gust
MPH
rain 1hr
in
rain 24hr
in
rain mn
in
humidity
%
barometer
mb
20220118130220 56 68 1.0 2.0 0.00 0.00 0.00 80 1016.0
20220118125721 56 22 2.0 2.0 0.00 0.00 0.00 80 1016.0
20220118125220 56 22 2.0 2.0 0.00 0.00 0.00 80 1016.0
20220118124720 56 35 2.0 3.0 0.00 0.00 0.00 80 1016.0
20220118124221 56 22 2.0 3.0 0.00 0.00 0.00 80 1015.9
20220118123720 56 22 1.0 3.0 0.00 0.00 0.00 80 1015.9
20220118123220 57 22 0.0 2.0 0.00 0.00 0.00 79 1015.9
20220118122221 57 22 0.0 0.0 0.00 0.00 0.00 79 1016.1
20220118121720 57 22 1.0 0.0 0.00 0.00 0.00 79 1016.1
20220118120721 57 22 1.0 2.0 0.00 0.00 0.00 79 1016.1
20220118120221 57 22 0.0 2.0 0.00 0.00 0.00 79 1016.2
20220118115720 57 22 0.0 0.0 0.00 0.00 0.00 78 1016.2
20220118115221 57 338 0.0 1.0 0.00 0.00 0.00 78 1016.2
20220118114722 58 0 0.0 1.0 0.00 0.00 0.00 78 1016.2
20220118114220 58 0 0.0 0.0 0.00 0.00 0.00 77 1016.1
20220118113720 58 354 0.0 0.0 0.00 0.00 0.00 77 1016.1
20220118113221 58 22 0.0 0.0 0.00 0.00 0.00 77 1016.1
20220118112722 58 10 1.0 2.0 0.00 0.00 0.00 76 1016.1
20220118112225 58 338 0.0 1.0 0.00 0.00 0.00 76 1016.0
20220118111720 58 15 0.0 2.0 0.00 0.00 0.00 76 1016.0
20220118111220 59 338 1.0 0.0 0.00 0.00 0.00 75 1016.0
20220118110724 59 338 1.0 2.0 0.00 0.00 0.00 75 1016.0
20220118110222 59 22 1.0 2.0 0.00 0.00 0.00 75 1015.8
20220118105719 59 0 2.0 2.0 0.00 0.00 0.00 74 1015.8
20220118104720 60 338 5.0 6.0 0.00 0.00 0.00 74 1015.8
20220118104221 60 315 3.0 6.0 0.00 0.00 0.00 74 1015.5
20220118103221 60 315 3.0 6.0 0.00 0.00 0.00 73 1015.5
20220118102720 60 333 2.0 3.0 0.00 0.00 0.00 73 1015.5
20220118102220 60 0 3.0 6.0 0.00 0.00 0.00 73 1015.3
20220118101721 61 351 3.0 6.0 0.00 0.00 0.00 72 1015.3
20220118101220 61 338 3.0 5.0 0.00 0.00 0.00 72 1015.3
20220118100220 61 338 3.0 5.0 0.00 0.00 0.00 71 1015.3
20220118095721 62 320 3.0 6.0 0.00 0.00 0.00 71 1015.3
20220118095224 62 315 4.0 6.0 0.00 0.00 0.00 71 1015.3
20220118094720 62 343 5.0 6.0 0.00 0.00 0.00 71 1015.3
20220118094221 62 0 5.0 7.0 0.00 0.00 0.00 71 1015.6
20220118092720 63 338 3.0 6.0 0.00 0.00 0.00 69 1015.6
20220118091220 64 315 5.0 6.0 0.00 0.00 0.00 69 1015.7
20220118090724 64 315 5.0 6.0 0.00 0.00 0.00 68 1015.7
20220118085720 65 331 6.0 8.0 0.00 0.00 0.00 67 1015.8
20220118085220 65 315 5.0 7.0 0.00 0.00 0.00 67 1015.8
20220118084221 66 338 5.0 5.0 0.00 0.00 0.00 66 1016.3
20220118083720 67 331 5.0 6.0 0.00 0.00 0.00 65 1016.3
20220118083220 67 315 5.0 6.0 0.00 0.00 0.00 64 1016.3
20220118082220 67 315 4.0 6.0 0.00 0.00 0.00 64 1016.6
20220118081723 68 315 2.0 7.0 0.00 0.00 0.00 63 1016.6
20220118081221 69 0 2.0 3.0 0.00 0.00 0.00 62 1016.6
20220118080220 70 338 2.0 2.0 0.00 0.00 0.00 60 1016.5
20220118075720 70 10 3.0 5.0 0.00 0.00 0.00 59 1016.5
20220118075222 71 315 3.0 5.0 0.00 0.00 0.00 58 1016.5
20220118074720 72 330 3.0 5.0 0.00 0.00 0.00 57 1016.5
20220118073723 73 323 5.0 6.0 0.00 0.00 0.00 55 1017.3
20220118073220 74 338 5.0 7.0 0.00 0.00 0.00 54 1017.3
20220118072721 75 330 6.0 7.0 0.00 0.00 0.00 53 1017.3
20220118072225 75 292 6.0 7.0 0.00 0.00 0.00 52 1018.6
20220118071721 76 331 6.0 8.0 0.00 0.00 0.00 51 1018.6
20220118071221 77 338 6.0 7.0 0.00 0.00 0.00 49 1018.6
20220118065721 79 292 7.0 9.0 0.00 0.00 0.00 47 1016.1
20220118065221 80 315 7.0 9.0 0.00 0.00 0.00 47 1016.1
20220118064721 80 299 7.0 9.0 0.00 0.00 0.00 46 1016.1
20220118064222 80 292 8.0 12.0 0.00 0.00 0.00 46 1016.2
20220118063220 81 315 9.0 9.0 0.00 0.00 0.00 46 1016.2
20220118062721 81 279 8.0 13.0 0.00 0.00 0.00 46 1016.2
20220118061720 82 292 10.0 13.0 0.00 0.00 0.00 45 1016.2
20220118061223 82 292 10.0 14.0 0.00 0.00 0.00 45 1016.2
20220118060721 83 315 10.0 14.0 0.00 0.00 0.00 45 1016.2
20220118055724 83 305 10.0 14.0 0.00 0.00 0.00 45 1015.9
20220118055220 83 292 10.0 12.0 0.00 0.00 0.00 45 1015.9
20220118054722 83 302 10.0 13.0 0.00 0.00 0.00 45 1015.9
20220118053222 84 315 9.0 10.0 0.00 0.00 0.00 46 1015.8
20220118052223 84 292 10.0 12.0 0.00 0.00 0.00 46 1016.1
20220118051221 84 292 10.0 12.0 0.00 0.00 0.00 44 1016.1
20220118050221 85 270 10.0 13.0 0.00 0.00 0.00 44 1015.9
20220118045722 85 270 12.0 15.0 0.00 0.00 0.00 43 1015.9
20220118045220 85 315 10.0 15.0 0.00 0.00 0.00 43 1015.9
20220118044720 85 292 10.0 12.0 0.00 0.00 0.00 42 1015.9
20220118044223 85 270 10.0 14.0 0.00 0.00 0.00 42 1016.0
20220118043720 85 323 10.0 14.0 0.00 0.00 0.00 42 1016.0
20220118042721 86 307 10.0 13.0 0.00 0.00 0.00 42 1016.0
20220118041220 86 270 10.0 12.0 0.00 0.00 0.00 42 1016.0
20220118040721 86 329 10.0 14.0 0.00 0.00 0.00 41 1016.0
20220118035721 87 315 10.0 17.0 0.00 0.00 0.00 41 1015.4
20220118035220 87 270 10.0 13.0 0.00 0.00 0.00 41 1015.4
20220118034720 88 284 10.0 14.0 0.00 0.00 0.00 40 1015.4
20220118034222 88 292 9.0 15.0 0.00 0.00 0.00 38 1015.3
20220118033720 88 301 7.0 15.0 0.00 0.00 0.00 38 1015.3
20220118033221 88 292 7.0 10.0 0.00 0.00 0.00 38 1015.3
20220118032722 88 324 7.0 9.0 0.00 0.00 0.00 38 1015.3
20220118032222 88 315 7.0 12.0 0.00 0.00 0.00 39 1014.8
20220118031721 89 306 6.0 12.0 0.00 0.00 0.00 38 1014.8
20220118025720 89 324 8.0 10.0 0.00 0.00 0.00 40 1014.9
20220118025221 88 338 9.0 12.0 0.00 0.00 0.00 40 1014.9
20220118024720 89 315 8.0 13.0 0.00 0.00 0.00 39 1014.9
20220118023221 89 292 6.0 12.0 0.00 0.00 0.00 40 1014.6
20220118022722 89 304 5.0 8.0 0.00 0.00 0.00 42 1014.6
20220118022220 89 338 5.0 8.0 0.00 0.00 0.00 42 1014.1
20220118021720 89 302 6.0 10.0 0.00 0.00 0.00 42 1014.1
20220118021222 89 315 6.0 8.0 0.00 0.00 0.00 42 1014.1
20220118020721 89 337 6.0 8.0 0.00 0.00 0.00 42 1014.1
20220118020221 89 315 5.0 8.0 0.00 0.00 0.00 42 1014.8
20220118015720 88 315 5.0 8.0 0.00 0.00 0.00 43 1014.8
20220118015219 88 315 5.0 6.0 0.00 0.00 0.00 43 1014.8
20220118014720 88 338 6.0 9.0 0.00 0.00 0.00 44 1014.8
20220118014219 88 292 5.0 8.0 0.00 0.00 0.00 44 1014.7
20220118013722 88 315 5.0 8.0 0.00 0.00 0.00 45 1014.7
20220118013221 88 315 5.0 7.0 0.00 0.00 0.00 44 1014.7
20220118012722 88 347 5.0 9.0 0.00 0.00 0.00 46 1014.7
20220118011721 88 355 5.0 7.0 0.00 0.00 0.00 46 1014.6
20220118011221 87 292 5.0 8.0 0.00 0.00 0.00 47 1014.6
20220118010221 87 292 5.0 7.0 0.00 0.00 0.00 47 1014.6
20220118005220 87 270 6.0 6.0 0.00 0.00 0.00 48 1014.6
20220118004720 87 315 5.0 8.0 0.00 0.00 0.00 48 1014.6
20220118004223 86 315 5.0 9.0 0.00 0.00 0.00 49 1014.8
20220118002720 85 280 5.0 7.0 0.00 0.00 0.00 51 1014.8
20220118002220 85 315 6.0 9.0 0.00 0.00 0.00 51 1014.8
20220118001720 85 306 5.0 9.0 0.00 0.00 0.00 51 1014.8
20220118001223 84 315 4.0 9.0 0.00 0.00 0.00 51 1014.8
20220117235220 84 292 6.0 9.0 0.00 0.00 0.00 53 1014.8
20220117234720 83 279 5.0 9.0 0.00 0.00 0.00 54 1014.8
20220117234221 82 292 5.0 7.0 0.00 0.00 0.00 54 1014.8
20220117233720 83 279 5.0 8.0 0.00 0.00 0.00 55 1014.8
20220117233221 83 315 5.0 8.0 0.00 0.00 0.00 56 1014.8
20220117232720 82 315 3.0 7.0 0.00 0.00 0.00 57 1014.8
20220117231721 82 319 5.0 7.0 0.00 0.00 0.00 58 1014.8
20220117231221 81 270 5.0 3.0 0.00 0.00 0.00 59 1014.8
20220117230720 81 270 5.0 7.0 0.00 0.00 0.00 59 1014.8
20220117230221 80 292 6.0 7.0 0.00 0.00 0.00 59 1014.8
20220117224720 81 315 5.0 7.0 0.00 0.00 0.00 64 1014.8
20220117223220 79 292 5.0 8.0 0.00 0.00 0.00 66 1014.6
20220117222721 79 330 5.0 6.0 0.00 0.00 0.00 66 1014.6
20220117222220 78 338 5.0 6.0 0.00 0.00 0.00 67 1014.5
20220117221720 78 315 5.0 5.0 0.00 0.00 0.00 68 1014.5
20220117221220 77 338 5.0 7.0 0.00 0.00 0.00 69 1014.5
20220117220220 76 315 5.0 7.0 0.00 0.00 0.00 71 1014.6
20220117215720 75 278 5.0 5.0 0.00 0.00 0.00 72 1014.6
20220117215220 75 315 3.0 5.0 0.00 0.00 0.00 74 1014.6
20220117214220 74 315 3.0 7.0 0.00 0.00 0.00 75 1014.4
20220117213720 74 294 3.0 5.0 0.00 0.00 0.00 75 1014.4
20220117213222 73 338 4.0 6.0 0.00 0.00 0.00 77 1014.4
20220117211720 71 337 2.0 3.0 0.00 0.00 0.00 79 1014.1
20220117211221 70 315 2.0 5.0 0.00 0.00 0.00 78 1014.1
20220117210221 68 338 2.0 3.0 0.00 0.00 0.00 78 1014.2
20220117205721 67 327 3.0 5.0 0.00 0.00 0.00 78 1014.2
20220117205220 65 292 3.0 5.0 0.00 0.00 0.00 78 1014.2
20220117204721 65 315 3.0 5.0 0.00 0.00 0.00 79 1014.2
20220117204220 65 315 2.0 5.0 0.00 0.00 0.00 77 1014.2
20220117203221 64 292 2.0 5.0 0.00 0.00 0.00 77 1014.2
20220117202721 63 292 2.0 6.0 0.00 0.00 0.00 76 1014.2
20220117202220 62 0 2.0 6.0 0.00 0.00 0.00 77 1014.1
20220117201720 62 323 2.0 6.0 0.00 0.00 0.00 77 1014.1
20220117201220 61 315 2.0 5.0 0.00 0.00 0.00 77 1014.1
20220117200721 61 308 1.0 5.0 0.00 0.00 0.00 76 1014.1
20220117200220 61 338 1.0 2.0 0.00 0.00 0.00 76 1014.1
20220117195721 60 342 2.0 2.0 0.00 0.00 0.00 76 1014.1
20220117195220 60 338 1.0 2.0 0.00 0.00 0.00 76 1014.1
20220117194720 60 315 1.0 3.0 0.00 0.00 0.00 76 1014.1
20220117194223 59 22 1.0 1.0 0.00 0.00 0.00 76 1013.7
20220117193720 59 37 1.0 2.0 0.00 0.00 0.00 76 1013.7
20220117193220 58 22 1.0 2.0 0.00 0.00 0.00 76 1013.7
20220117192721 58 55 1.0 5.0 0.00 0.00 0.00 76 1013.7
20220117192220 58 45 0.0 5.0 0.00 0.00 0.00 76 1013.6
20220117191720 57 19 0.0 0.0 0.00 0.00 0.00 77 1013.6
20220117191221 57 338 0.0 2.0 0.00 0.00 0.00 77 1013.6
20220117190721 56 25 1.0 2.0 0.00 0.00 0.00 77 1013.6
20220117190221 56 45 1.0 2.0 0.00 0.00 0.00 78 1013.3
20220117185221 55 45 0.0 1.0 0.00 0.00 0.00 78 1013.3
20220117184720 55 61 0.0 1.0 0.00 0.00 0.00 79 1013.3
20220117184220 54 68 0.0 0.0 0.00 0.00 0.00 79 1013.1
20220117183720 54 112 0.0 0.0 0.00 0.00 0.00 79 1013.1
20220117183221 53 135 0.0 0.0 0.00 0.00 0.00 80 1013.1
20220117182721 53 112 0.0 0.0 0.00 0.00 0.00 80 1013.1
20220117182220 53 112 0.0 1.0 0.00 0.00 0.00 80 1013.1
20220117181721 53 127 0.0 1.0 0.00 0.00 0.00 80 1013.1
20220117180220 52 135 0.0 0.0 0.00 0.00 0.00 81 1012.9
20220117175721 51 166 0.0 0.0 0.00 0.00 0.00 81 1012.9
20220117175220 51 158 0.0 0.0 0.00 0.00 0.00 81 1012.9
20220117174720 51 158 0.0 0.0 0.00 0.00 0.00 81 1012.9
20220117174221 51 135 0.0 0.0 0.00 0.00 0.00 81 1012.7
20220117173221 51 135 0.0 1.0 0.00 0.00 0.00 81 1012.7
20220117172722 51 135 0.0 1.0 0.00 0.00 0.00 81 1012.7
20220117172221 51 135 0.0 0.0 0.00 0.00 0.00 81 1012.7
20220117171221 51 112 0.0 2.0 0.00 0.00 0.00 80 1012.7
20220117170722 51 112 0.0 2.0 0.00 0.00 0.00 80 1012.7
20220117170221 51 112 0.0 1.0 0.00 0.00 0.00 81 1012.8
20220117165720 51 135 1.0 1.0 0.00 0.00 0.00 81 1012.8
20220117165221 52 112 1.0 1.0 0.00 0.00 0.00 80 1012.8
20220117164723 52 112 0.0 1.0 0.00 0.00 0.00 80 1012.8
20220117164221 51 112 0.0 1.0 0.00 0.00 0.00 80 1013.0
20220117163221 51 112 0.0 0.0 0.00 0.00 0.00 81 1013.0
20220117161722 51 123 0.0 2.0 0.00 0.00 0.00 81 1012.9
20220117161220 51 112 0.0 1.0 0.00 0.00 0.00 81 1012.9
20220117160720 51 122 0.0 0.0 0.00 0.00 0.00 81 1012.9
20220117160222 51 135 0.0 0.0 0.00 0.00 0.00 81 1012.8
20220117155721 52 135 1.0 1.0 0.00 0.00 0.00 81 1012.8
20220117154721 52 147 0.0 2.0 0.00 0.00 0.00 81 1012.8
20220117154223 52 135 0.0 2.0 0.00 0.00 0.00 81 1012.9
20220117153721 52 135 0.0 0.0 0.00 0.00 0.00 81 1012.9
20220117153221 52 112 0.0 0.0 0.00 0.00 0.00 81 1012.9
20220117151727 53 135 0.0 1.0 0.00 0.00 0.00 81 1012.8
20220117150222 53 158 0.0 0.0 0.00 0.00 0.00 81 1013.1
20220117145721 53 135 0.0 1.0 0.00 0.00 0.00 81 1013.1
20220117145220 53 135 0.0 1.0 0.00 0.00 0.00 81 1013.1
20220117144720 53 133 0.0 1.0 0.00 0.00 0.00 81 1013.1
20220117144221 54 135 0.0 0.0 0.00 0.00 0.00 81 1013.1
20220117143720 54 135 0.0 0.0 0.00 0.00 0.00 81 1013.1
20220117143223 54 135 0.0 0.0 0.00 0.00 0.00 81 1013.1
20220117142720 54 135 0.0 0.0 0.00 0.00 0.00 81 1013.1
20220117142220 54 112 0.0 0.0 0.00 0.00 0.00 81 1013.0
20220117141721 54 135 0.0 0.0 0.00 0.00 0.00 81 1013.0
20220117140723 55 112 0.0 0.0 0.00 0.00 0.00 81 1013.0
20220117140223 55 135 0.0 0.0 0.00 0.00 0.00 81 1013.0
20220117135721 55 122 0.0 0.0 0.00 0.00 0.00 81 1013.0
20220117135221 55 135 0.0 0.0 0.00 0.00 0.00 81 1013.0
20220117134721 55 125 0.0 0.0 0.00 0.00 0.00 81 1013.0
20220117134221 55 135 0.0 0.0 0.00 0.00 0.00 81 1013.4
20220117133721 55 135 0.0 0.0 0.00 0.00 0.00 80 1013.4
20220117132721 56 81 0.0 0.0 0.00 0.00 0.00 80 1013.4
20220117131720 56 68 0.0 0.0 0.00 0.00 0.00 80 1013.1
20220117131221 56 22 0.0 0.0 0.00 0.00 0.00 80 1013.1
20220117130720 56 45 0.0 0.0 0.00 0.00 0.00 80 1013.1